Home   Weather   Riesa   Past weeks

Flag for Germany Past Weather in Riesa, Saxony, Germany — Yesterday and Last 2 Weeks

Now
37 °F

Clear.


Feels Like: 35 °F
Forecast: 35 / 50 °F
Wind: 3 mph from Northeast

Location: Dresden-Klotzsche

Current Time: Apr 28, 2017 at 4:49:57 am

Latest Report: Apr 28, 2017 at 4:20 am


Visibility: 10 mi

Pressure: 29.89 "Hg

Humidity: 87%

Dew Point: 34 °F

Location of RiesaLocation

Past Weather in Riesa — Graph

°F

Riesa Temperature Yesterday

Maximum temperature yesterday: 50 °F (at 2:50 pm)
Minimum temperature yesterday: 34 °F (at 3:50 am)
Average temperature yesterday: 43 °F

High & Low Weather Summary for the Past Weeks

 TemperatureHumidityPressure
High57 °F (Apr 24, 4:20 pm)100% (Apr 13, 5:50 am)30.54 "Hg (Apr 13, 5:50 am)
Low28 °F (Apr 19, 5:20 am)38% (Apr 24, 3:20 pm)29.59 "Hg (Apr 25, 5:50 am)
Average43 °F71%30.03 "Hg
* Reported Apr 13 3:20 am — Apr 28 3:50 am, Riesa, Weather by CustomWeather, © 2017

Note: Actual official high and low records may vary slightly from our data, if they occured in-between our weather recording intervals... More about our weather records

Advertising

Riesa Weather History for the Previous 24 Hours

Scroll right to see more
 ConditionsComfort  
Time TempWeatherWind HumidityBarometerVisibility
3:50 am
Fri, Apr 28
37 °FClear.2 mph81%29.89 "Hg10 mi
3:20 am39 °FClear.1 mph81%29.92 "Hg10 mi
2:50 am37 °FClear.3 mph87%29.92 "Hg10 mi
2:20 am37 °FClear.2 mph87%29.92 "Hg10 mi
1:50 am39 °FClear.3 mph81%29.92 "Hg10 mi
1:20 am39 °FClear.3 mph81%29.92 "Hg10 mi
12:50 am39 °FClear.2 mph75%29.92 "Hg10 mi
12:20 am41 °FClear.1 mph70%29.95 "Hg10 mi
11:50 pm
Thu, Apr 27
41 °FClear.2 mph70%29.95 "Hg10 mi
11:20 pm43 °FClear.1 mph66%29.95 "Hg10 mi
10:50 pm43 °FClear.1 mph61%29.95 "Hg10 mi
10:20 pm43 °FClear.2 mph61%29.95 "Hg10 mi
9:50 pm45 °FClear.1 mph61%29.95 "Hg10 mi
9:20 pm45 °FClear.2 mph57%29.95 "Hg10 mi
8:50 pm45 °FClear.2 mph57%29.95 "Hg10 mi
8:20 pm45 °FClear.2 mph61%29.95 "Hg10 mi
7:50 pm46 °FSunny.2 mph57%29.95 "Hg10 mi
7:20 pm46 °FSunny.5 mph57%29.95 "Hg10 mi
6:50 pm48 °FSunny.6 mph50%29.95 "Hg10 mi
6:20 pm48 °FPartly sunny.5 mph54%29.95 "HgN/A
5:50 pm50 °FScattered clouds.3 mph43%29.95 "HgN/A
5:20 pm50 °FBroken clouds.3 mph43%29.95 "HgN/A
4:50 pm50 °FBroken clouds.5 mph40%29.95 "HgN/A
4:20 pm50 °FOvercast.5 mph43%29.95 "HgN/A
3:50 pm50 °FOvercast.3 mph40%29.95 "HgN/A
3:20 pm50 °FOvercast.3 mph43%29.95 "HgN/A
2:50 pm50 °FOvercast.6 mph47%29.95 "HgN/A
2:20 pm48 °FOvercast.3 mph50%29.95 "HgN/A
1:50 pm48 °FOvercast.3 mph50%29.95 "HgN/A
12:50 pm48 °FBroken clouds.3 mph50%29.95 "HgN/A
12:20 pm48 °FBroken clouds.5 mph54%29.95 "HgN/A
11:50 am46 °FBroken clouds.3 mph53%29.95 "HgN/A
11:20 am46 °FOvercast.5 mph57%29.95 "HgN/A
10:50 am46 °FOvercast.3 mph57%29.95 "HgN/A
10:20 am45 °FSunny.1 mph66%29.95 "Hg10 mi
9:50 am43 °FSunny.2 mph76%29.92 "Hg10 mi
9:20 am41 °FPassing clouds.3 mph81%29.95 "HgN/A
8:50 am41 °FPassing clouds.5 mph81%29.95 "HgN/A
8:20 am37 °FOvercast.3 mph93%29.92 "HgN/A
7:50 am37 °FPassing clouds.5 mph93%29.92 "HgN/A
6:50 am36 °FSunny.3 mph93%29.92 "Hg10 mi
6:20 am34 °FSunny.6 mph100%29.92 "Hg10 mi
5:50 am34 °FSunny.2 mph93%29.89 "Hg10 mi
5:20 am34 °FClear.1 mph93%29.89 "Hg10 mi
4:50 am34 °FClear.3 mph93%29.89 "Hg10 mi
Weather by CustomWeather, © 2017

See weather overviewHow to use our weather pages